Time,TemperatureF,DewpointF,PressureIn,WindDirection,WindDirectionDegrees,WindSpeedMPH,WindSpeedGustMPH,Humidity,HourlyPrecipIn,Conditions,Clouds,dailyrainin,SolarRadiationWatts/m^2,SoftwareType,DateUTC
2013-03-17 00:02:00,20.3,15.1,30.15,NNE,22,0.0,0.0,80,0.00,CLR,,0.00,0.0,WeatherDisplay:10.37,2013-03-16 23:02:00,
2013-03-17 00:07:00,20.1,14.9,30.15,NNE,22,0.0,0.0,80,0.00,CLR,,0.00,0.0,WeatherDisplay:10.37,2013-03-16 23:07:00,
2013-03-17 00:12:00,20.1,14.9,30.15,NNE,22,0.0,0.0,80,0.00,CLR,,0.00,0.0,WeatherDisplay:10.37,2013-03-16 23:12:00,
2013-03-17 00:17:00,19.9,14.8,30.15,ENE,68,0.0,0.0,80,0.00,CLR,,0.00,0.0,WeatherDisplay:10.37,2013-03-16 23:17:00,
2013-03-17 00:22:00,19.9,14.8,30.15,ENE,68,2.3,2.3,80,0.00,CLR,,0.00,0.0,WeatherDisplay:10.37,2013-03-16 23:22:00,
2013-03-17 00:27:00,19.9,14.8,30.15,NNE,22,1.2,0.0,80,0.00,CLR,,0.00,0.0,WeatherDisplay:10.37,2013-03-16 23:27:00,
2013-03-17 00:32:00,19.9,14.8,30.15,ENE,68,0.0,0.0,80,0.00,CLR,,0.00,0.0,WeatherDisplay:10.37,2013-03-16 23:32:00,
2013-03-17 00:37:00,20.1,15.2,30.12,NE,45,0.0,0.0,81,0.00,CLR,,0.00,0.0,WeatherDisplay:10.37,2013-03-16 23:37:00,
2013-03-17 00:42:00,19.9,14.8,30.12,NE,45,0.0,0.0,80,0.00,CLR,,0.00,0.0,WeatherDisplay:10.37,2013-03-16 23:42:00,
2013-03-17 00:47:00,19.9,14.8,30.12,NE,45,0.0,0.0,80,0.00,CLR,,0.00,0.0,WeatherDisplay:10.37,2013-03-16 23:47:00,
2013-03-17 00:52:00,19.8,14.6,30.15,NE,45,0.0,0.0,80,0.00,CLR,,0.00,0.0,WeatherDisplay:10.37,2013-03-16 23:52:00,
2013-03-17 00:57:00,19.8,14.6,30.15,NE,45,0.0,0.0,80,0.00,CLR,,0.00,0.0,WeatherDisplay:10.37,2013-03-16 23:57:00,
2013-03-17 01:02:00,19.6,14.4,30.15,NE,45,0.0,0.0,80,0.00,CLR,,0.00,0.0,WeatherDisplay:10.37,2013-03-17 00:02:00,
2013-03-17 01:08:00,19.6,14.7,30.15,NNE,22,0.0,0.0,81,0.00,CLR,,0.00,0.0,WeatherDisplay:10.37,2013-03-17 00:08:00,
2013-03-17 01:13:00,19.6,14.4,30.15,NNE,22,0.0,0.0,80,0.00,CLR,,0.00,0.0,WeatherDisplay:10.37,2013-03-17 00:13:00,
2013-03-17 01:18:00,19.6,14.4,30.15,ESE,112,0.0,0.0,80,0.00,CLR,,0.00,0.0,WeatherDisplay:10.37,2013-03-17 00:18:00,
2013-03-17 01:23:00,19.4,14.5,30.15,ENE,68,1.2,0.0,81,0.00,CLR,,0.00,0.0,WeatherDisplay:10.37,2013-03-17 00:23:00,
2013-03-17 01:28:00,19.4,14.5,30.15,East,90,2.3,2.3,81,0.00,CLR,,0.00,0.0,WeatherDisplay:10.37,2013-03-17 00:28:00,
2013-03-17 01:33:00,19.4,14.2,30.15,ESE,112,2.3,2.3,80,0.00,CLR,,0.00,0.0,WeatherDisplay:10.37,2013-03-17 00:33:00,
2013-03-17 01:38:00,19.6,14.4,30.15,ENE,68,2.4,2.4,80,0.00,CLR,,0.00,0.0,WeatherDisplay:10.37,2013-03-17 00:38:00,
2013-03-17 01:43:00,19.8,14.6,30.15,SSE,158,2.3,2.3,80,0.00,CLR,,0.00,0.0,WeatherDisplay:10.37,2013-03-17 00:43:00,
2013-03-17 01:48:00,19.9,14.5,30.15,ENE,68,2.6,0.0,79,0.00,CLR,,0.00,0.0,WeatherDisplay:10.37,2013-03-17 00:48:00,
2013-03-17 01:53:00,19.9,14.5,30.15,ENE,68,2.3,2.3,79,0.00,CLR,,0.00,0.0,WeatherDisplay:10.37,2013-03-17 00:53:00,
2013-03-17 01:58:00,19.9,14.5,30.15,ESE,112,2.3,0.0,79,0.00,CLR,,0.00,0.0,WeatherDisplay:10.37,2013-03-17 00:58:00,
2013-03-17 02:03:00,19.9,14.5,30.15,ENE,68,2.3,2.3,79,0.00,CLR,,0.00,0.0,WeatherDisplay:10.37,2013-03-17 01:03:00,
2013-03-17 02:08:00,20.1,14.7,30.15,ENE,68,1.4,1.4,79,0.00,CLR,,0.00,0.0,WeatherDisplay:10.37,2013-03-17 01:08:00,
2013-03-17 02:13:00,19.9,14.5,30.15,NNE,22,0.0,0.0,79,0.00,CLR,,0.00,0.0,WeatherDisplay:10.37,2013-03-17 01:13:00,
2013-03-17 02:18:00,19.9,14.5,30.15,ENE,68,1.2,0.0,79,0.00,CLR,,0.00,0.0,WeatherDisplay:10.37,2013-03-17 01:18:00,
2013-03-17 02:23:00,19.8,14.3,30.12,ENE,68,2.3,0.0,79,0.00,CLR,,0.00,0.0,WeatherDisplay:10.37,2013-03-17 01:23:00,
2013-03-17 02:28:00,19.8,14.6,30.12,East,90,0.0,0.0,80,0.00,CLR,,0.00,0.0,WeatherDisplay:10.37,2013-03-17 01:28:00,
2013-03-17 02:33:00,19.6,14.4,30.12,NNE,22,0.0,0.0,80,0.00,CLR,,0.00,0.0,WeatherDisplay:10.37,2013-03-17 01:33:00,
2013-03-17 02:38:00,19.6,14.4,30.12,NE,45,1.2,1.2,80,0.00,CLR,,0.00,0.0,WeatherDisplay:10.37,2013-03-17 01:38:00,
2013-03-17 02:43:00,19.4,14.5,30.12,NNE,22,0.0,0.0,81,0.00,CLR,,0.00,0.0,WeatherDisplay:10.37,2013-03-17 01:43:00,
2013-03-17 02:48:00,19.2,14.3,30.12,NNW,338,0.0,0.0,81,0.00,CLR,,0.00,0.0,WeatherDisplay:10.37,2013-03-17 01:48:00,
2013-03-17 02:53:00,19.2,14.3,30.12,NNW,338,0.0,0.0,81,0.00,CLR,,0.00,0.0,WeatherDisplay:10.37,2013-03-17 01:53:00,
2013-03-17 02:58:00,19.0,14.2,30.12,NNW,338,0.0,0.0,81,0.00,CLR,,0.00,0.0,WeatherDisplay:10.37,2013-03-17 01:58:00,
2013-03-17 03:03:00,19.0,14.2,30.12,NNW,338,0.0,0.0,81,0.00,CLR,,0.00,0.0,WeatherDisplay:10.37,2013-03-17 02:03:00,
2013-03-17 03:08:00,18.7,13.8,30.12,ENE,68,0.0,0.0,81,0.00,CLR,,0.00,0.0,WeatherDisplay:10.37,2013-03-17 02:08:00,
2013-03-17 03:13:00,18.7,13.8,30.12,ENE,68,0.0,0.0,81,0.00,CLR,,0.00,0.0,WeatherDisplay:10.37,2013-03-17 02:13:00,
2013-03-17 03:18:00,18.5,13.6,30.12,ESE,112,0.0,0.0,81,0.00,CLR,,0.00,0.0,WeatherDisplay:10.37,2013-03-17 02:18:00,
2013-03-17 03:23:00,18.5,13.9,30.12,SSE,158,0.0,0.0,82,0.00,CLR,,0.00,0.0,WeatherDisplay:10.37,2013-03-17 02:23:00,
2013-03-17 03:28:00,18.5,13.9,30.12,ESE,112,0.0,0.0,82,0.00,CLR,,0.00,0.0,WeatherDisplay:10.37,2013-03-17 02:28:00,
2013-03-17 03:33:00,18.5,13.9,30.12,ESE,112,0.0,0.0,82,0.00,CLR,,0.00,0.0,WeatherDisplay:10.37,2013-03-17 02:33:00,
2013-03-17 03:38:00,18.5,13.9,30.12,SSE,158,1.2,0.0,82,0.00,CLR,,0.00,0.0,WeatherDisplay:10.37,2013-03-17 02:38:00,
2013-03-17 03:43:00,18.5,13.9,30.12,SSE,158,0.0,0.0,82,0.00,CLR,,0.00,0.0,WeatherDisplay:10.37,2013-03-17 02:43:00,
2013-03-17 03:48:00,18.5,13.9,30.12,SSE,158,1.2,0.0,82,0.00,CLR,,0.00,0.0,WeatherDisplay:10.37,2013-03-17 02:48:00,
2013-03-17 03:53:00,18.5,13.9,30.12,SSE,158,0.0,0.0,82,0.00,CLR,,0.00,0.0,WeatherDisplay:10.37,2013-03-17 02:53:00,
2013-03-17 03:58:00,18.5,13.9,30.12,ESE,112,0.0,0.0,82,0.00,CLR,,0.00,0.0,WeatherDisplay:10.37,2013-03-17 02:58:00,
2013-03-17 04:03:00,18.5,13.9,30.12,NNE,22,0.0,0.0,82,0.00,CLR,,0.00,0.0,WeatherDisplay:10.37,2013-03-17 03:03:00,
2013-03-17 04:08:00,18.5,13.9,30.12,NNE,22,0.0,0.0,82,0.00,CLR,,0.00,0.0,WeatherDisplay:10.37,2013-03-17 03:08:00,
2013-03-17 04:13:00,18.5,13.9,30.12,ESE,112,2.3,2.3,82,0.00,CLR,,0.00,0.0,WeatherDisplay:10.37,2013-03-17 03:13:00,
2013-03-17 04:18:00,18.5,13.9,30.12,ENE,68,2.3,2.3,82,0.00,CLR,,0.00,0.0,WeatherDisplay:10.37,2013-03-17 03:18:00,
2013-03-17 04:23:00,18.7,14.4,30.12,East,90,3.5,0.0,83,0.00,CLR,,0.00,0.0,WeatherDisplay:10.37,2013-03-17 03:23:00,
2013-03-17 04:28:00,18.7,14.4,30.12,ESE,112,1.2,0.0,83,0.00,CLR,,0.00,0.0,WeatherDisplay:10.37,2013-03-17 03:28:00,
2013-03-17 04:33:00,18.7,14.1,30.12,ESE,112,4.0,4.0,82,0.00,CLR,,0.00,0.0,WeatherDisplay:10.37,2013-03-17 03:33:00,
2013-03-17 04:38:00,19.0,14.7,30.12,ESE,112,3.5,3.5,83,0.00,CLR,,0.00,0.0,WeatherDisplay:10.37,2013-03-17 03:38:00,
2013-03-17 04:43:00,19.4,15.1,30.12,ESE,112,4.6,4.6,83,0.00,CLR,,0.00,0.0,WeatherDisplay:10.37,2013-03-17 03:43:00,
2013-03-17 04:48:00,19.6,15.0,30.12,ESE,112,2.3,0.0,82,0.00,CLR,,0.00,0.0,WeatherDisplay:10.37,2013-03-17 03:48:00,
2013-03-17 04:53:00,19.6,15.0,30.12,ESE,112,2.9,0.0,82,0.00,CLR,,0.00,0.0,WeatherDisplay:10.37,2013-03-17 03:53:00,
2013-03-17 04:58:00,19.8,15.2,30.12,ESE,112,3.5,3.5,82,0.00,CLR,,0.00,0.0,WeatherDisplay:10.37,2013-03-17 03:58:00,
2013-03-17 05:00:00,19.9,15.3,30.12,ESE,112,1.2,1.2,82,0.00,CLR,,0.00,0.0,WeatherDisplay:10.37,2013-03-17 04:00:00,
2013-03-17 05:01:00,19.9,15.3,30.12,ESE,112,2.9,2.9,82,0.00,CLR,,0.00,0.0,WeatherDisplay:10.37,2013-03-17 04:01:00,
2013-03-17 05:06:00,20.1,15.5,30.12,SSE,158,2.3,2.3,82,0.00,CLR,,0.00,0.0,WeatherDisplay:10.37,2013-03-17 04:06:00,
2013-03-17 05:11:00,20.3,15.7,30.12,SSE,158,1.2,1.2,82,0.00,CLR,,0.00,0.0,WeatherDisplay:10.37,2013-03-17 04:11:00,
2013-03-17 05:16:00,20.3,15.7,30.12,SSE,158,3.5,3.5,82,0.00,CLR,,0.00,0.0,WeatherDisplay:10.37,2013-03-17 04:16:00,
2013-03-17 05:21:00,20.3,15.7,30.12,SSE,158,3.3,3.3,82,0.00,CLR,,0.00,0.0,WeatherDisplay:10.37,2013-03-17 04:21:00,
2013-03-17 05:26:00,20.3,15.7,30.12,ESE,112,2.9,2.9,82,0.00,OVC,,0.00,0.0,WeatherDisplay:10.37,2013-03-17 04:26:00,
2013-03-17 05:31:00,20.3,15.7,30.12,ENE,68,1.2,0.0,82,0.00,OVC,,0.00,0.0,WeatherDisplay:10.37,2013-03-17 04:31:00,
2013-03-17 05:36:00,20.1,15.5,30.12,North,0,0.0,0.0,82,0.00,OVC,,0.00,0.0,WeatherDisplay:10.37,2013-03-17 04:36:00,
2013-03-17 05:41:00,19.9,15.3,30.12,SSE,158,0.0,0.0,82,0.00,OVC,,0.00,0.0,WeatherDisplay:10.37,2013-03-17 04:41:00,
2013-03-17 05:46:00,19.9,15.3,30.12,ESE,112,0.9,0.0,82,0.00,OVC,,0.00,0.0,WeatherDisplay:10.37,2013-03-17 04:46:00,
2013-03-17 05:51:00,19.8,15.2,30.12,SSE,158,0.0,0.0,82,0.00,OVC,,0.00,0.0,WeatherDisplay:10.37,2013-03-17 04:51:00,
2013-03-17 05:56:00,19.6,15.0,30.12,SW,225,1.2,1.2,82,0.00,OVC,,0.00,0.0,WeatherDisplay:10.37,2013-03-17 04:56:00,
2013-03-17 06:01:00,19.6,15.0,30.12,SSE,158,2.3,2.3,82,0.00,OVC,,0.00,0.0,WeatherDisplay:10.37,2013-03-17 05:01:00,
2013-03-17 06:06:00,19.6,15.0,30.12,East,90,3.5,0.0,82,0.00,OVC,,0.00,0.0,WeatherDisplay:10.37,2013-03-17 05:06:00,
2013-03-17 06:11:00,19.6,15.0,30.15,ESE,112,1.4,0.0,82,0.00,OVC,,0.00,0.0,WeatherDisplay:10.37,2013-03-17 05:11:00,
2013-03-17 06:16:00,19.6,15.0,30.15,ESE,112,2.3,2.3,82,0.00,OVC,,0.00,1.5,WeatherDisplay:10.37,2013-03-17 05:16:00,
2013-03-17 06:21:00,19.6,15.0,30.15,ESE,112,2.3,2.3,82,0.00,OVC,,0.00,4.1,WeatherDisplay:10.37,2013-03-17 05:21:00,
2013-03-17 06:26:00,19.8,15.4,30.15,ESE,112,3.5,3.5,83,0.00,OVC,,0.00,6.8,WeatherDisplay:10.37,2013-03-17 05:26:00,
2013-03-17 06:31:00,20.3,16.0,30.15,ENE,68,4.6,4.6,83,0.00,OVC,,0.00,9.4,WeatherDisplay:10.37,2013-03-17 05:31:00,
2013-03-17 06:36:00,20.7,16.0,30.15,East,90,4.3,4.3,82,0.00,OVC,,0.00,12.0,WeatherDisplay:10.37,2013-03-17 05:36:00,
2013-03-17 06:41:00,21.0,16.4,30.15,ESE,112,3.5,3.5,82,0.00,OVC,,0.00,14.7,WeatherDisplay:10.37,2013-03-17 05:41:00,
2013-03-17 06:46:00,21.4,16.5,30.15,ESE,112,4.9,4.9,81,0.00,OVC,,0.00,17.3,WeatherDisplay:10.37,2013-03-17 05:46:00,
2013-03-17 06:51:00,21.9,17.0,30.15,West,270,4.6,4.6,81,0.00,OVC,,0.00,20.0,WeatherDisplay:10.37,2013-03-17 05:51:00,
2013-03-17 06:56:00,22.3,17.3,30.15,ESE,112,4.6,4.6,81,0.00,OVC,,0.00,22.6,WeatherDisplay:10.37,2013-03-17 05:56:00,
2013-03-17 07:01:00,22.8,17.6,30.15,ESE,112,5.8,5.8,80,0.00,OVC,,0.00,25.4,WeatherDisplay:10.37,2013-03-17 06:01:00,
2013-03-17 07:06:00,23.0,17.7,30.15,ESE,112,5.8,5.8,80,0.00,OVC,,0.00,28.1,WeatherDisplay:10.37,2013-03-17 06:06:00,
2013-03-17 07:11:00,23.4,17.8,30.15,SE,135,5.8,5.8,79,0.00,OVC,,0.00,30.7,WeatherDisplay:10.37,2013-03-17 06:11:00,
2013-03-17 07:16:00,23.5,17.7,30.15,ESE,112,5.8,5.8,78,0.00,OVC,,0.00,33.3,WeatherDisplay:10.37,2013-03-17 06:16:00,
2013-03-17 07:21:00,23.5,17.7,30.15,ESE,112,4.9,4.9,78,0.00,OVC,,0.00,36.1,WeatherDisplay:10.37,2013-03-17 06:21:00,
2013-03-17 07:26:00,23.7,17.9,30.15,ESE,112,5.8,5.9,78,0.00,OVC,,0.00,38.8,WeatherDisplay:10.37,2013-03-17 06:26:00,
2013-03-17 07:31:00,23.9,18.0,30.15,NNW,338,5.8,5.8,78,0.00,OVC,,0.00,41.4,WeatherDisplay:10.37,2013-03-17 06:31:00,
2013-03-17 07:36:00,24.1,18.2,30.15,ESE,112,6.0,6.0,78,0.00,OVC,,0.00,44.1,WeatherDisplay:10.37,2013-03-17 06:36:00,
2013-03-17 07:41:00,24.3,18.4,30.15,ESE,112,5.9,5.9,78,0.00,OVC,,0.00,46.7,WeatherDisplay:10.37,2013-03-17 06:41:00,
2013-03-17 07:46:00,24.3,18.4,30.15,ESE,112,5.8,5.8,78,0.00,OVC,,0.00,49.3,WeatherDisplay:10.37,2013-03-17 06:46:00,
2013-03-17 07:51:00,24.4,18.6,30.15,ESE,112,5.9,5.9,78,0.00,OVC,,0.00,52.0,WeatherDisplay:10.37,2013-03-17 06:51:00,
2013-03-17 07:56:00,24.6,18.7,30.15,WNW,292,5.8,5.8,78,0.00,OVC,,0.00,54.6,WeatherDisplay:10.37,2013-03-17 06:56:00,
2013-03-17 08:01:00,24.8,18.6,30.15,ESE,112,8.1,8.1,77,0.00,OVC,,0.00,57.3,WeatherDisplay:10.37,2013-03-17 07:01:00,
2013-03-17 08:06:00,25.0,18.8,30.15,ESE,112,4.6,4.6,77,0.00,OVC,,0.00,59.9,WeatherDisplay:10.37,2013-03-17 07:06:00,
2013-03-17 08:11:00,25.3,19.1,30.15,NNE,22,4.6,4.6,77,0.00,OVC,,0.00,62.5,WeatherDisplay:10.37,2013-03-17 07:11:00,
2013-03-17 08:16:00,25.5,19.3,30.15,WNW,292,3.6,3.6,77,0.00,OVC,,0.00,65.0,WeatherDisplay:10.37,2013-03-17 07:16:00,
2013-03-17 08:21:00,25.9,19.7,30.15,SSE,158,4.6,4.6,77,0.00,OVC,,0.00,67.7,WeatherDisplay:10.37,2013-03-17 07:21:00,
2013-03-17 08:26:00,26.1,19.8,30.15,SSE,158,4.6,4.6,77,0.00,OVC,,0.00,70.1,WeatherDisplay:10.37,2013-03-17 07:26:00,
2013-03-17 08:31:00,26.2,19.7,30.15,WNW,292,5.8,5.8,76,0.00,OVC,,0.00,72.6,WeatherDisplay:10.37,2013-03-17 07:31:00,
2013-03-17 08:36:00,26.4,19.9,30.15,ESE,112,6.0,6.0,76,0.00,OVC,,0.00,75.1,WeatherDisplay:10.37,2013-03-17 07:36:00,
2013-03-17 08:41:00,26.6,20.1,30.15,ESE,112,5.8,5.8,76,0.00,OVC,,0.00,77.5,WeatherDisplay:10.37,2013-03-17 07:41:00,
2013-03-17 08:46:00,26.8,19.9,30.15,South,180,4.6,4.6,75,0.00,OVC,,0.00,79.9,WeatherDisplay:10.37,2013-03-17 07:46:00,
2013-03-17 08:51:00,27.0,19.8,30.15,WSW,248,4.3,4.3,74,0.00,OVC,,0.00,82.3,WeatherDisplay:10.37,2013-03-17 07:51:00,
2013-03-17 08:56:00,27.3,20.1,30.15,ENE,68,4.6,4.6,74,0.00,OVC,,0.00,84.6,WeatherDisplay:10.37,2013-03-17 07:56:00,
2013-03-17 09:01:00,27.7,20.8,30.15,SSE,158,6.0,6.0,75,0.00,OVC,,0.00,87.0,WeatherDisplay:10.37,2013-03-17 08:01:00,
2013-03-17 09:06:00,27.9,20.3,30.15,SW,225,4.6,4.6,73,0.00,OVC,,0.00,89.3,WeatherDisplay:10.37,2013-03-17 08:06:00,
2013-03-17 09:11:00,28.2,20.7,30.15,SSE,158,4.7,4.7,73,0.00,OVC,,0.00,91.4,WeatherDisplay:10.37,2013-03-17 08:11:00,
2013-03-17 09:16:00,28.2,20.3,30.15,WSW,248,2.9,2.9,72,0.00,OVC,,0.00,93.7,WeatherDisplay:10.37,2013-03-17 08:16:00,
2013-03-17 09:21:00,28.6,20.7,30.15,ESE,112,4.6,4.6,72,0.00,OVC,,0.00,95.9,WeatherDisplay:10.37,2013-03-17 08:21:00,
2013-03-17 09:26:00,28.9,21.0,30.15,SSW,202,5.6,5.6,72,0.00,OVC,,0.00,97.8,WeatherDisplay:10.37,2013-03-17 08:26:00,
2013-03-17 09:31:00,29.1,21.2,30.15,SSW,202,3.5,3.5,72,0.00,OVC,,0.00,100.0,WeatherDisplay:10.37,2013-03-17 08:31:00,
2013-03-17 09:36:00,29.3,21.4,30.15,SSE,158,3.5,3.5,72,0.00,OVC,,0.00,102.0,WeatherDisplay:10.37,2013-03-17 08:36:00,
2013-03-17 09:41:00,29.5,21.6,30.15,SSW,202,3.6,3.6,72,0.00,OVC,,0.00,104.0,WeatherDisplay:10.37,2013-03-17 08:41:00,
2013-03-17 09:46:00,29.5,21.2,30.15,WSW,248,4.6,4.6,71,0.00,OVC,,0.00,105.9,WeatherDisplay:10.37,2013-03-17 08:46:00,
2013-03-17 09:51:00,29.5,21.2,30.15,ESE,112,4.6,4.6,71,0.00,OVC,,0.00,107.7,WeatherDisplay:10.37,2013-03-17 08:51:00,
2013-03-17 09:56:00,29.5,21.2,30.15,SSW,202,8.1,8.1,71,0.00,OVC,,0.00,109.6,WeatherDisplay:10.37,2013-03-17 08:56:00,
2013-03-17 10:01:00,29.7,21.4,30.15,East,90,5.8,5.8,71,0.00,OVC,,0.00,111.4,WeatherDisplay:10.37,2013-03-17 09:01:00,
2013-03-17 10:06:00,30.0,21.8,30.15,SSW,202,4.6,4.6,71,0.00,OVC,,0.00,113.4,WeatherDisplay:10.37,2013-03-17 09:06:00,
2013-03-17 10:11:00,30.0,21.4,30.15,SSE,158,6.9,6.9,70,0.00,OVC,,0.00,115.0,WeatherDisplay:10.37,2013-03-17 09:11:00,
2013-03-17 10:16:00,29.8,21.2,30.15,SSW,202,2.3,2.6,70,0.00,OVC,,0.00,116.3,WeatherDisplay:10.37,2013-03-17 09:16:00,
2013-03-17 10:21:00,30.2,21.6,30.15,South,180,3.5,3.5,70,0.00,OVC,,0.00,117.8,WeatherDisplay:10.37,2013-03-17 09:21:00,
2013-03-17 10:26:00,30.4,20.7,30.15,SSW,202,5.8,5.8,67,0.00,OVC,,0.00,119.3,WeatherDisplay:10.37,2013-03-17 09:26:00,
2013-03-17 10:31:00,30.9,20.9,30.15,SSW,202,4.7,4.7,66,0.00,OVC,,0.00,120.6,WeatherDisplay:10.37,2013-03-17 09:31:00,
2013-03-17 10:36:00,31.1,21.8,30.15,SSW,202,2.4,3.3,68,0.00,OVC,,0.00,122.1,WeatherDisplay:10.37,2013-03-17 09:36:00,
2013-03-17 10:41:00,31.5,21.8,30.15,WSW,248,3.8,4.5,67,0.00,OVC,,0.00,123.3,WeatherDisplay:10.37,2013-03-17 09:41:00,
2013-03-17 10:46:00,31.8,22.1,30.15,SSW,202,4.6,4.6,67,0.00,OVC,,0.00,124.6,WeatherDisplay:10.37,2013-03-17 09:46:00,
2013-03-17 10:51:00,32.2,22.1,30.15,South,180,4.9,4.9,66,0.00,OVC,,0.00,125.7,WeatherDisplay:10.37,2013-03-17 09:51:00,
2013-03-17 10:56:00,32.4,22.3,30.15,South,180,2.9,3.3,66,0.00,OVC,,0.00,126.7,WeatherDisplay:10.37,2013-03-17 09:56:00,
2013-03-17 11:01:00,32.5,22.4,30.15,NNW,338,4.7,4.7,66,0.00,OVC,,0.00,127.9,WeatherDisplay:10.37,2013-03-17 10:01:00,
2013-03-17 11:06:00,32.4,22.3,30.15,SSW,202,5.8,5.8,66,0.00,OVC,,0.00,128.9,WeatherDisplay:10.37,2013-03-17 10:06:00,
2013-03-17 11:11:00,32.5,21.7,30.15,SSE,158,6.9,6.9,64,0.00,OVC,,0.00,129.7,WeatherDisplay:10.37,2013-03-17 10:11:00,
2013-03-17 11:16:00,32.5,22.1,30.15,SSE,158,6.9,6.9,65,0.00,OVC,,0.00,130.5,WeatherDisplay:10.37,2013-03-17 10:16:00,
2013-03-17 11:21:00,32.5,21.7,30.15,SSE,158,6.9,6.9,64,0.00,OVC,,0.00,131.2,WeatherDisplay:10.37,2013-03-17 10:21:00,
2013-03-17 11:26:00,32.7,21.9,30.12,SSW,202,2.3,2.3,64,0.00,OVC,,0.00,132.0,WeatherDisplay:10.37,2013-03-17 10:26:00,
2013-03-17 11:31:00,33.1,20.3,30.12,SSW,202,6.9,6.9,59,0.00,OVC,,0.00,132.5,WeatherDisplay:10.37,2013-03-17 10:31:00,
2013-03-17 11:36:00,33.3,21.6,30.12,SSW,202,5.8,5.8,62,0.00,OVC,,0.00,133.0,WeatherDisplay:10.37,2013-03-17 10:36:00,
2013-03-17 11:41:00,33.3,21.3,30.12,ESE,112,3.8,3.8,61,0.00,OVC,,0.00,133.5,WeatherDisplay:10.37,2013-03-17 10:41:00,
2013-03-17 11:46:00,33.4,21.4,30.12,NNW,338,8.1,8.1,61,0.00,OVC,,0.00,134.0,WeatherDisplay:10.37,2013-03-17 10:46:00,
2013-03-17 11:51:00,33.4,21.0,30.12,ESE,112,4.6,4.6,60,0.00,OVC,,0.00,134.3,WeatherDisplay:10.37,2013-03-17 10:51:00,
2013-03-17 11:56:00,33.4,19.4,30.12,SSW,202,8.1,8.1,56,0.00,OVC,,0.00,134.5,WeatherDisplay:10.37,2013-03-17 10:56:00,
2013-03-17 12:01:00,33.8,19.7,30.12,ENE,68,2.3,2.9,56,0.00,OVC,,0.00,134.6,WeatherDisplay:10.37,2013-03-17 11:01:00,
2013-03-17 12:06:00,33.6,20.0,30.12,SSW,202,3.5,4.0,57,0.00,OVC,,0.00,134.8,WeatherDisplay:10.37,2013-03-17 11:06:00,
2013-03-17 12:11:00,33.8,20.2,30.12,ESE,112,2.6,3.3,57,0.00,OVC,,0.00,134.8,WeatherDisplay:10.37,2013-03-17 11:11:00,
2013-03-17 12:16:00,33.8,20.2,30.12,ENE,68,5.8,5.8,57,0.00,OVC,,0.00,134.8,WeatherDisplay:10.37,2013-03-17 11:16:00,
2013-03-17 12:21:00,34.0,19.1,30.12,SSW,202,8.1,8.1,54,0.00,OVC,,0.00,134.6,WeatherDisplay:10.37,2013-03-17 11:21:00,
2013-03-17 12:26:00,34.0,19.5,30.09,ESE,112,3.5,3.6,55,0.00,OVC,,0.00,134.3,WeatherDisplay:10.37,2013-03-17 11:26:00,
2013-03-17 12:31:00,34.0,19.9,30.09,ESE,112,3.5,4.9,56,0.00,OVC,,0.00,134.1,WeatherDisplay:10.37,2013-03-17 11:31:00,
2013-03-17 12:36:00,33.8,19.7,30.09,WSW,248,6.2,6.2,56,0.00,OVC,,0.00,133.8,WeatherDisplay:10.37,2013-03-17 11:36:00,
2013-03-17 12:41:00,33.6,19.6,30.09,ESE,112,4.6,4.6,56,0.00,OVC,,0.00,133.3,WeatherDisplay:10.37,2013-03-17 11:41:00,
2013-03-17 12:46:00,33.8,20.2,30.09,South,180,4.6,4.6,57,0.00,OVC,,0.00,132.8,WeatherDisplay:10.37,2013-03-17 11:46:00,
2013-03-17 12:51:00,33.6,19.6,30.09,SSE,158,4.7,4.7,56,0.00,OVC,,0.00,132.2,WeatherDisplay:10.37,2013-03-17 11:51:00,
2013-03-17 12:56:00,33.6,20.0,30.12,SSW,202,4.6,4.6,57,0.00,OVC,,0.00,131.5,WeatherDisplay:10.37,2013-03-17 11:56:00,
2013-03-17 13:01:00,33.6,20.0,30.12,SSE,158,4.6,4.6,57,0.00,OVC,,0.00,130.8,WeatherDisplay:10.37,2013-03-17 12:01:00,
2013-03-17 13:06:00,33.6,20.0,30.12,SSE,158,8.1,8.1,57,0.00,OVC,,0.00,130.2,WeatherDisplay:10.37,2013-03-17 12:06:00,
2013-03-17 13:11:00,34.0,19.9,30.12,SSW,202,8.1,8.1,56,0.00,OVC,,0.00,129.2,WeatherDisplay:10.37,2013-03-17 12:11:00,
2013-03-17 13:16:00,34.5,19.6,30.12,SSW,202,3.5,4.5,54,0.00,OVC,,0.00,128.4,WeatherDisplay:10.37,2013-03-17 12:16:00,
2013-03-17 13:21:00,34.7,20.2,30.12,SSE,158,3.5,3.5,55,0.00,OVC,,0.00,127.4,WeatherDisplay:10.37,2013-03-17 12:21:00,
2013-03-17 13:26:00,34.3,19.4,30.12,SSW,202,5.8,5.8,54,0.00,OVC,,0.00,126.2,WeatherDisplay:10.37,2013-03-17 12:26:00,
2013-03-17 13:32:00,34.5,20.0,30.12,SSW,202,4.6,4.6,55,0.00,OVC,,0.00,124.9,WeatherDisplay:10.37,2013-03-17 12:32:00,
2013-03-17 13:37:00,34.5,20.4,30.09,ENE,68,4.6,4.6,56,0.00,OVC,,0.00,123.8,WeatherDisplay:10.37,2013-03-17 12:37:00,
2013-03-17 13:42:00,34.5,20.4,30.09,SSE,158,4.6,4.6,56,0.00,OVC,,0.00,122.4,WeatherDisplay:10.37,2013-03-17 12:42:00,
2013-03-17 13:47:00,34.3,19.8,30.09,NNW,338,3.5,3.5,55,0.00,OVC,,0.00,121.1,WeatherDisplay:10.37,2013-03-17 12:47:00,
2013-03-17 13:52:00,34.2,19.7,30.06,SSW,202,2.9,3.8,55,0.00,OVC,,0.00,119.8,WeatherDisplay:10.37,2013-03-17 12:52:00,
2013-03-17 13:57:00,34.3,19.8,30.06,South,180,3.5,3.5,55,0.00,OVC,,0.00,118.3,WeatherDisplay:10.37,2013-03-17 12:57:00,
2013-03-17 14:02:00,34.3,19.4,30.06,SSE,158,3.5,3.6,54,0.00,OVC,,0.00,116.8,WeatherDisplay:10.37,2013-03-17 13:02:00,
2013-03-17 14:07:00,35.1,19.6,30.06,SSW,202,4.6,4.6,53,0.00,OVC,,0.00,115.2,WeatherDisplay:10.37,2013-03-17 13:07:00,
2013-03-17 14:13:00,35.4,20.4,30.06,ESE,112,4.6,4.6,54,0.00,OVC,,0.00,113.5,WeatherDisplay:10.37,2013-03-17 13:13:00,
2013-03-17 14:18:00,35.1,20.5,30.06,ESE,112,8.1,9.7,55,0.00,OVC,,0.00,111.5,WeatherDisplay:10.37,2013-03-17 13:18:00,
2013-03-17 14:23:00,34.5,20.0,30.06,SSW,202,8.1,8.1,55,0.00,OVC,,0.00,109.7,WeatherDisplay:10.37,2013-03-17 13:23:00,
2013-03-17 14:28:00,34.5,20.0,30.06,ESE,112,3.5,3.5,55,0.00,OVC,,0.00,107.9,WeatherDisplay:10.37,2013-03-17 13:28:00,
2013-03-17 14:33:00,34.5,20.0,30.06,SSW,202,4.6,4.6,55,0.00,OVC,,0.00,106.1,WeatherDisplay:10.37,2013-03-17 13:33:00,
2013-03-17 14:38:00,34.7,20.6,30.03,ESE,112,8.1,8.1,56,0.00,OVC,,0.00,104.1,WeatherDisplay:10.37,2013-03-17 13:38:00,
2013-03-17 14:43:00,34.2,19.7,30.03,East,90,6.9,6.9,55,0.00,OVC,,0.00,102.3,WeatherDisplay:10.37,2013-03-17 13:43:00,
2013-03-17 14:48:00,33.8,19.3,30.03,SSW,202,5.8,5.8,55,0.00,OVC,,0.00,100.2,WeatherDisplay:10.37,2013-03-17 13:48:00,
2013-03-17 14:53:00,33.6,19.6,30.03,SSE,158,9.2,9.2,56,0.00,OVC,,0.00,98.2,WeatherDisplay:10.37,2013-03-17 13:53:00,
2013-03-17 14:58:00,33.4,19.4,30.06,SSW,202,5.8,5.8,56,0.00,OVC,,0.00,96.0,WeatherDisplay:10.37,2013-03-17 13:58:00,
2013-03-17 15:03:00,33.3,19.2,30.06,ESE,112,6.0,6.0,56,0.00,OVC,,0.00,93.9,WeatherDisplay:10.37,2013-03-17 14:03:00,
2013-03-17 15:08:00,33.1,19.1,30.12,SSE,158,8.1,8.1,56,0.00,OVC,,0.00,91.7,WeatherDisplay:10.37,2013-03-17 14:08:00,
2013-03-17 15:13:00,33.1,19.1,30.12,East,90,4.6,4.6,56,0.00,OVC,,0.00,89.6,WeatherDisplay:10.37,2013-03-17 14:13:00,
2013-03-17 15:18:00,33.1,19.1,30.12,SSW,202,7.4,7.4,56,0.00,OVC,,0.00,87.3,WeatherDisplay:10.37,2013-03-17 14:18:00,
2013-03-17 15:23:00,32.7,18.3,30.12,SSE,158,4.6,4.6,55,0.00,OVC,,0.00,85.0,WeatherDisplay:10.37,2013-03-17 14:23:00,
2013-03-17 15:28:00,32.7,18.7,30.12,SSW,202,8.1,8.1,56,0.00,OVC,,0.00,82.7,WeatherDisplay:10.37,2013-03-17 14:28:00,
2013-03-17 15:33:00,32.7,18.7,30.12,ESE,112,5.8,5.8,56,0.00,OVC,,0.00,80.2,WeatherDisplay:10.37,2013-03-17 14:33:00,
2013-03-17 15:38:00,32.7,18.3,30.09,SSE,158,2.3,6.0,55,0.00,OVC,,0.00,77.9,WeatherDisplay:10.37,2013-03-17 14:38:00,
2013-03-17 15:43:00,32.5,18.6,30.09,SSE,158,6.9,6.9,56,0.00,OVC,,0.00,75.4,WeatherDisplay:10.37,2013-03-17 14:43:00,
2013-03-17 15:48:00,32.5,18.6,30.09,SSE,158,6.9,6.9,56,0.00,OVC,,0.00,72.9,WeatherDisplay:10.37,2013-03-17 14:48:00,
2013-03-17 15:53:00,32.4,18.4,30.12,SSE,158,5.8,5.9,56,0.00,OVC,,0.00,70.5,WeatherDisplay:10.37,2013-03-17 14:53:00,
2013-03-17 15:58:00,32.2,18.2,30.12,SSW,202,3.5,3.5,56,0.00,OVC,,0.00,68.0,WeatherDisplay:10.37,2013-03-17 14:58:00,
2013-03-17 16:03:00,32.2,18.2,30.12,SSE,158,8.1,8.1,56,0.00,OVC,,0.00,65.5,WeatherDisplay:10.37,2013-03-17 15:03:00,
2013-03-17 16:08:00,32.0,18.1,30.12,SSW,202,9.2,9.2,56,0.00,OVC,,0.00,62.9,WeatherDisplay:10.37,2013-03-17 15:08:00,
2013-03-17 16:13:00,32.0,18.1,30.12,ESE,112,4.6,4.6,56,0.00,OVC,,0.00,60.2,WeatherDisplay:10.37,2013-03-17 15:13:00,
2013-03-17 16:18:00,31.8,17.5,30.12,ENE,68,9.2,9.2,55,0.00,OVC,,0.00,57.8,WeatherDisplay:10.37,2013-03-17 15:18:00,
2013-03-17 16:23:00,31.8,17.9,30.09,WSW,248,10.4,10.4,56,0.00,OVC,,0.00,55.1,WeatherDisplay:10.37,2013-03-17 15:23:00,
2013-03-17 16:28:00,31.6,17.7,30.09,SSE,158,8.1,8.1,56,0.00,OVC,,0.00,52.5,WeatherDisplay:10.37,2013-03-17 15:28:00,
2013-03-17 16:33:00,31.5,17.1,30.09,SSE,158,4.6,4.9,55,0.00,OVC,,0.00,49.8,WeatherDisplay:10.37,2013-03-17 15:33:00,
2013-03-17 16:38:00,31.5,17.1,30.09,South,180,3.5,3.5,55,0.00,OVC,,0.00,47.2,WeatherDisplay:10.37,2013-03-17 15:38:00,
2013-03-17 16:43:00,31.3,17.0,30.09,SSE,158,5.8,5.8,55,0.00,OVC,,0.00,44.5,WeatherDisplay:10.37,2013-03-17 15:43:00,
2013-03-17 16:48:00,31.1,16.8,30.09,SSW,202,4.6,6.2,55,0.00,OVC,,0.00,41.7,WeatherDisplay:10.37,2013-03-17 15:48:00,
2013-03-17 16:53:00,31.1,16.8,30.09,ESE,112,5.8,5.8,55,0.00,OVC,,0.00,39.1,WeatherDisplay:10.37,2013-03-17 15:53:00,
2013-03-17 16:58:00,31.1,16.8,30.09,SSE,158,7.1,7.1,55,0.00,OVC,,0.00,36.5,WeatherDisplay:10.37,2013-03-17 15:58:00,
2013-03-17 17:03:00,31.1,16.8,30.09,SSE,158,9.2,9.2,55,0.00,OVC,,0.00,33.8,WeatherDisplay:10.37,2013-03-17 16:03:00,
2013-03-17 17:08:00,30.9,16.2,30.09,SSW,202,5.8,5.8,54,0.00,OVC,,0.00,31.2,WeatherDisplay:10.37,2013-03-17 16:08:00,
2013-03-17 17:13:00,30.9,16.2,30.09,South,180,3.5,3.5,54,0.00,OVC,,0.00,28.5,WeatherDisplay:10.37,2013-03-17 16:13:00,
2013-03-17 17:18:00,30.9,16.6,30.09,SSW,202,3.5,4.0,55,0.00,OVC,,0.00,25.7,WeatherDisplay:10.37,2013-03-17 16:18:00,
2013-03-17 17:23:00,30.7,16.5,30.09,ESE,112,10.4,10.4,55,0.00,OVC,,0.00,23.1,WeatherDisplay:10.37,2013-03-17 16:23:00,
2013-03-17 17:28:00,30.7,16.5,30.09,East,90,8.1,8.1,55,0.00,OVC,,0.00,20.5,WeatherDisplay:10.37,2013-03-17 16:28:00,
2013-03-17 17:33:00,30.6,16.3,30.09,ESE,112,5.8,5.8,55,0.00,OVC,,0.00,17.8,WeatherDisplay:10.37,2013-03-17 16:33:00,
2013-03-17 17:38:00,30.6,16.3,30.09,SE,135,5.8,5.8,55,0.00,OVC,,0.00,15.2,WeatherDisplay:10.37,2013-03-17 16:38:00,
2013-03-17 17:43:00,30.4,16.1,30.09,SSE,158,4.6,4.6,55,0.00,OVC,,0.00,12.5,WeatherDisplay:10.37,2013-03-17 16:43:00,
2013-03-17 17:48:00,30.4,16.5,30.09,SSE,158,8.1,8.1,56,0.00,OVC,,0.00,9.9,WeatherDisplay:10.37,2013-03-17 16:48:00,
2013-03-17 17:53:00,30.4,16.5,30.09,South,180,8.1,8.1,56,0.00,OVC,,0.00,7.3,WeatherDisplay:10.37,2013-03-17 16:53:00,
2013-03-17 17:58:00,30.4,16.5,30.09,ESE,112,5.8,5.8,56,0.00,OVC,,0.00,4.6,WeatherDisplay:10.37,2013-03-17 16:58:00,
2013-03-17 18:03:00,30.2,16.4,30.09,ESE,112,10.0,10.0,56,0.00,CLR,,0.00,0.0,WeatherDisplay:10.37,2013-03-17 17:03:00,
2013-03-17 18:08:00,30.2,16.4,30.09,SE,135,6.0,6.2,56,0.00,CLR,,0.00,0.0,WeatherDisplay:10.37,2013-03-17 17:08:00,
2013-03-17 18:13:00,30.2,16.8,30.09,SSE,158,6.9,7.4,57,0.00,CLR,,0.00,0.0,WeatherDisplay:10.37,2013-03-17 17:13:00,
2013-03-17 18:18:00,30.0,16.6,30.09,ESE,112,10.4,10.4,57,0.00,CLR,,0.00,0.0,WeatherDisplay:10.37,2013-03-17 17:18:00,
2013-03-17 18:23:00,29.8,16.8,30.09,ESE,112,8.1,8.1,58,0.00,CLR,,0.00,0.0,WeatherDisplay:10.37,2013-03-17 17:23:00,
2013-03-17 18:28:00,29.8,16.8,30.09,ESE,112,10.4,10.4,58,0.00,CLR,,0.00,0.0,WeatherDisplay:10.37,2013-03-17 17:28:00,
2013-03-17 18:33:00,29.7,16.7,30.09,ESE,112,8.1,8.1,58,0.00,CLR,,0.00,0.0,WeatherDisplay:10.37,2013-03-17 17:33:00,
2013-03-17 18:38:00,29.5,16.9,30.09,ESE,112,8.1,8.1,59,0.00,CLR,,0.00,0.0,WeatherDisplay:10.37,2013-03-17 17:38:00,
2013-03-17 18:43:00,29.5,16.9,30.09,ESE,112,10.5,10.5,59,0.00,CLR,,0.00,0.0,WeatherDisplay:10.37,2013-03-17 17:43:00,
2013-03-17 18:48:00,29.5,16.9,30.09,ESE,112,9.8,9.8,59,0.00,CLR,,0.00,0.0,WeatherDisplay:10.37,2013-03-17 17:48:00,
2013-03-17 18:53:00,29.5,16.9,30.09,ESE,112,9.2,9.2,59,0.00,CLR,,0.00,0.0,WeatherDisplay:10.37,2013-03-17 17:53:00,
2013-03-17 18:58:00,29.3,16.7,30.09,SSE,158,3.5,5.4,59,0.00,CLR,,0.00,0.0,WeatherDisplay:10.37,2013-03-17 17:58:00,
2013-03-17 19:03:00,29.3,16.7,30.09,ESE,112,10.4,10.4,59,0.00,CLR,,0.00,0.0,WeatherDisplay:10.37,2013-03-17 18:03:00,
2013-03-17 19:08:00,29.3,16.7,30.09,SSE,158,8.1,8.1,59,0.00,CLR,,0.00,0.0,WeatherDisplay:10.37,2013-03-17 18:08:00,
2013-03-17 19:13:00,29.1,16.6,30.09,ESE,112,11.5,11.5,59,0.00,CLR,,0.00,0.0,WeatherDisplay:10.37,2013-03-17 18:13:00,
2013-03-17 19:18:00,29.1,17.0,30.09,ENE,68,8.1,8.1,60,0.00,CLR,,0.00,0.0,WeatherDisplay:10.37,2013-03-17 18:18:00,
2013-03-17 19:23:00,29.1,17.0,30.09,ESE,112,5.4,5.4,60,0.00,CLR,,0.00,0.0,WeatherDisplay:10.37,2013-03-17 18:23:00,
2013-03-17 19:28:00,29.1,17.3,30.09,WSW,248,5.8,5.8,61,0.00,CLR,,0.00,0.0,WeatherDisplay:10.37,2013-03-17 18:28:00,
2013-03-17 19:34:00,28.9,17.2,30.09,SSE,158,9.2,9.2,61,0.00,CLR,,0.00,0.0,WeatherDisplay:10.37,2013-03-17 18:34:00,
2013-03-17 19:39:00,28.9,17.2,30.09,ESE,112,5.8,5.8,61,0.00,CLR,,0.00,0.0,WeatherDisplay:10.37,2013-03-17 18:39:00,
2013-03-17 19:44:00,28.9,17.2,30.09,ESE,112,6.2,6.2,61,0.00,CLR,,0.00,0.0,WeatherDisplay:10.37,2013-03-17 18:44:00,
2013-03-17 19:49:00,28.9,17.2,30.09,ESE,112,6.2,6.2,61,0.00,CLR,,0.00,0.0,WeatherDisplay:10.37,2013-03-17 18:49:00,
2013-03-17 19:54:00,28.9,17.2,30.09,ESE,112,6.9,6.9,61,0.00,CLR,,0.00,0.0,WeatherDisplay:10.37,2013-03-17 18:54:00,
2013-03-17 19:59:00,28.9,17.2,30.09,ESE,112,11.5,11.5,61,0.00,CLR,,0.00,0.0,WeatherDisplay:10.37,2013-03-17 18:59:00,
2013-03-17 20:04:00,28.8,17.0,30.09,ESE,112,5.9,5.9,61,0.00,CLR,,0.00,0.0,WeatherDisplay:10.37,2013-03-17 19:04:00,
2013-03-17 20:09:00,28.8,17.0,30.06,SSW,202,4.6,4.6,61,0.00,CLR,,0.00,0.0,WeatherDisplay:10.37,2013-03-17 19:09:00,
2013-03-17 20:14:00,28.8,17.4,30.06,SSE,158,2.3,2.3,62,0.00,CLR,,0.00,0.0,WeatherDisplay:10.37,2013-03-17 19:14:00,
2013-03-17 20:19:00,28.8,17.0,30.06,ESE,112,9.2,9.2,61,0.00,CLR,,0.00,0.0,WeatherDisplay:10.37,2013-03-17 19:19:00,
2013-03-17 20:24:00,28.6,16.8,30.06,ESE,112,8.1,8.1,61,0.00,CLR,,0.00,0.0,WeatherDisplay:10.37,2013-03-17 19:24:00,
2013-03-17 20:29:00,28.6,16.8,30.06,SSE,158,12.7,12.7,61,0.00,CLR,,0.00,0.0,WeatherDisplay:10.37,2013-03-17 19:29:00,
2013-03-17 20:34:00,28.6,17.2,30.06,ESE,112,8.1,8.1,62,0.00,CLR,,0.00,0.0,WeatherDisplay:10.37,2013-03-17 19:34:00,
2013-03-17 20:39:00,28.6,16.8,30.06,SSW,202,9.2,9.2,61,0.00,CLR,,0.00,0.0,WeatherDisplay:10.37,2013-03-17 19:39:00,
2013-03-17 20:44:00,28.6,16.8,30.06,SSE,158,9.2,9.2,61,0.00,CLR,,0.00,0.0,WeatherDisplay:10.37,2013-03-17 19:44:00,
2013-03-17 20:49:00,28.4,16.7,30.06,ESE,112,6.9,6.9,61,0.00,CLR,,0.00,0.0,WeatherDisplay:10.37,2013-03-17 19:49:00,
2013-03-17 20:54:00,28.4,16.7,30.06,ESE,112,11.5,11.5,61,0.00,CLR,,0.00,0.0,WeatherDisplay:10.37,2013-03-17 19:54:00,
2013-03-17 20:59:00,28.4,16.7,30.06,SSE,158,11.5,11.5,61,0.00,CLR,,0.00,0.0,WeatherDisplay:10.37,2013-03-17 19:59:00,
2013-03-17 21:04:00,28.2,16.5,30.06,ESE,112,8.1,8.1,61,0.00,CLR,,0.00,0.0,WeatherDisplay:10.37,2013-03-17 20:04:00,
2013-03-17 21:09:00,28.2,16.1,30.06,ENE,68,10.4,10.4,60,0.00,CLR,,0.00,0.0,WeatherDisplay:10.37,2013-03-17 20:09:00,
2013-03-17 21:14:00,28.2,16.5,30.06,ESE,112,6.9,6.9,61,0.00,CLR,,0.00,0.0,WeatherDisplay:10.37,2013-03-17 20:14:00,
2013-03-17 21:19:00,28.0,16.3,30.06,ESE,112,8.7,8.7,61,0.00,CLR,,0.00,0.0,WeatherDisplay:10.37,2013-03-17 20:19:00,
2013-03-17 21:24:00,28.0,16.3,30.06,ESE,112,8.5,8.5,61,0.00,CLR,,0.00,0.0,WeatherDisplay:10.37,2013-03-17 20:24:00,
2013-03-17 21:29:00,28.0,16.3,30.06,ESE,112,11.5,11.5,61,0.00,CLR,,0.00,0.0,WeatherDisplay:10.37,2013-03-17 20:29:00,
2013-03-17 21:34:00,28.0,16.3,30.06,SSW,202,10.4,10.4,61,0.00,CLR,,0.00,0.0,WeatherDisplay:10.37,2013-03-17 20:34:00,
2013-03-17 21:39:00,28.0,16.3,30.03,SSE,158,6.9,6.9,61,0.00,CLR,,0.00,0.0,WeatherDisplay:10.37,2013-03-17 20:39:00,
2013-03-17 21:44:00,28.0,16.3,30.03,ESE,112,7.6,7.6,61,0.00,CLR,,0.00,0.0,WeatherDisplay:10.37,2013-03-17 20:44:00,
2013-03-17 21:49:00,27.9,16.1,30.03,SSW,202,6.9,6.9,61,0.00,CLR,,0.00,0.0,WeatherDisplay:10.37,2013-03-17 20:49:00,
2013-03-17 21:54:00,27.9,15.8,30.03,ESE,112,10.4,10.4,60,0.00,CLR,,0.00,0.0,WeatherDisplay:10.37,2013-03-17 20:54:00,
2013-03-17 21:59:00,27.9,16.1,30.03,NNE,22,9.2,9.2,61,0.00,CLR,,0.00,0.0,WeatherDisplay:10.37,2013-03-17 20:59:00,
2013-03-17 22:04:00,27.9,16.1,30.03,ESE,112,10.4,10.4,61,0.00,CLR,,0.00,0.0,WeatherDisplay:10.37,2013-03-17 21:04:00,
2013-03-17 22:09:00,27.9,16.1,30.03,ESE,112,12.7,12.7,61,0.00,CLR,,0.00,0.0,WeatherDisplay:10.37,2013-03-17 21:09:00,
2013-03-17 22:14:00,27.9,15.8,30.03,ESE,112,8.1,8.1,60,0.00,CLR,,0.00,0.0,WeatherDisplay:10.37,2013-03-17 21:14:00,
2013-03-17 22:19:00,27.9,15.8,30.03,SE,135,11.5,11.5,60,0.00,CLR,,0.00,0.0,WeatherDisplay:10.37,2013-03-17 21:19:00,
2013-03-17 22:24:00,27.9,15.8,30.03,ESE,112,10.4,10.4,60,0.00,CLR,,0.00,0.0,WeatherDisplay:10.37,2013-03-17 21:24:00,
2013-03-17 22:29:00,27.9,15.8,30.03,ENE,68,12.5,12.5,60,0.00,CLR,,0.00,0.0,WeatherDisplay:10.37,2013-03-17 21:29:00,
2013-03-17 22:34:00,27.7,15.6,30.03,ESE,112,9.7,9.7,60,0.00,CLR,,0.00,0.0,WeatherDisplay:10.37,2013-03-17 21:34:00,
2013-03-17 22:39:00,27.7,15.6,30.00,SSE,158,11.5,11.5,60,0.00,CLR,,0.00,0.0,WeatherDisplay:10.37,2013-03-17 21:39:00,
2013-03-17 22:44:00,27.7,15.6,30.00,ESE,112,8.1,8.1,60,0.00,CLR,,0.00,0.0,WeatherDisplay:10.37,2013-03-17 21:44:00,
2013-03-17 22:49:00,27.7,15.2,30.00,ESE,112,9.2,9.2,59,0.00,CLR,,0.00,0.0,WeatherDisplay:10.37,2013-03-17 21:49:00,
2013-03-17 22:54:00,27.7,15.2,30.00,ESE,112,8.1,8.1,59,0.00,CLR,,0.00,0.0,WeatherDisplay:10.37,2013-03-17 21:54:00,
2013-03-17 22:59:00,27.7,15.2,30.00,SSE,158,10.0,10.0,59,0.00,CLR,,0.00,0.0,WeatherDisplay:10.37,2013-03-17 21:59:00,
2013-03-17 23:04:00,27.7,15.2,30.00,ESE,112,10.4,10.4,59,0.00,CLR,,0.00,0.0,WeatherDisplay:10.37,2013-03-17 22:04:00,
2013-03-17 23:09:00,27.7,15.2,30.00,SE,135,8.5,8.5,59,0.00,CLR,,0.00,0.0,WeatherDisplay:10.37,2013-03-17 22:09:00,
2013-03-17 23:14:00,27.7,15.2,30.00,ESE,112,15.2,15.2,59,0.00,CLR,,0.00,0.0,WeatherDisplay:10.37,2013-03-17 22:14:00,
2013-03-17 23:19:00,27.7,15.2,30.00,ENE,68,9.2,9.2,59,0.00,CLR,,0.00,0.0,WeatherDisplay:10.37,2013-03-17 22:19:00,
2013-03-17 23:24:00,27.7,14.8,30.00,ESE,112,6.9,6.9,58,0.00,CLR,,0.00,0.0,WeatherDisplay:10.37,2013-03-17 22:24:00,
2013-03-17 23:29:00,27.7,14.8,30.00,ESE,112,8.5,8.5,58,0.00,CLR,,0.00,0.0,WeatherDisplay:10.37,2013-03-17 22:29:00,
2013-03-17 23:34:00,27.5,14.6,30.00,ESE,112,9.2,9.2,58,0.00,CLR,,0.00,0.0,WeatherDisplay:10.37,2013-03-17 22:34:00,
2013-03-17 23:39:00,27.5,14.6,30.06,NNE,22,10.4,10.4,58,0.00,CLR,,0.00,0.0,WeatherDisplay:10.37,2013-03-17 22:39:00,
2013-03-17 23:44:00,27.7,14.8,30.06,SSE,158,9.2,9.2,58,0.00,CLR,,0.00,0.0,WeatherDisplay:10.37,2013-03-17 22:44:00,
2013-03-17 23:49:00,27.7,15.2,30.06,SSE,158,5.8,5.8,59,0.00,CLR,,0.00,0.0,WeatherDisplay:10.37,2013-03-17 22:49:00,
2013-03-17 23:54:00,27.7,14.8,30.03,North,0,8.1,8.1,58,0.00,CLR,,0.00,0.0,WeatherDisplay:10.37,2013-03-17 22:54:00,
2013-03-17 23:59:00,27.7,15.2,30.03,SSE,158,6.9,6.9,59,0.00,CLR,,0.00,0.0,WeatherDisplay:10.37,2013-03-17 22:59:00,